Regional Weather Roundup
Issued by NWS

Home | Current Version | Previous Version | Text Only | Print | Product List | Glossary Off
Versions: 1 2 3 4 5 6 7 8 9 10 11 12 13 14 15 16 17 18 19 20 21 22 23 24 25 26 27 28 29 30 31 32 33 34 35 36 37 38 39 40 41 42 43 44 45 46 47 48 49 50

000
ASUS43 KOAX 270802
RWRNE

WEATHER ROUNDUP FOR NEBRASKA
NATIONAL WEATHER SERVICE OMAHA NE
200 AM CST THU NOV 27 2014

NOTES: SATELLITE DATA IS BEING USED TO AUGMENT CLOUD COVER ABOVE
       12000 FEET.
       "FAIR" INDICATES FEW OR NO CLOUDS BELOW 12,000 FEET WITH NO
       SIGNIFICANT WEATHER AND/OR OBSTRUCTIONS TO VISIBILITY.

  * THESE STATIONS DO NOT REPORT WEATHER SUCH AS RAIN...SNOW OR FOG.

NEZ001>004-019>022-054>056-270900-
NEBRASKA PANHANDLE

CITY           SKY/WX    TMP DP  RH WIND       PRES   REMARKS
SCOTTSBLUFF    CLEAR     19  17  92 E7        30.23S WCI  10
ALLIANCE       CLOUDY    24  22  91 S8        30.22F WCI  15
CHADRON        MOCLDY   N/A N/A N/A CALM      30.22F
SIDNEY         PTCLDY    21  18  88 SW9       30.24F WCI  11
$$

NEZ057>060-069>072-079>082-270900-
SOUTHWEST NEBRASKA

CITY           SKY/WX    TMP DP  RH WIND       PRES   REMARKS
NORTH PLATTE   CLOUDY    24  19  81 S6        30.34F WCI  17
IMPERIAL       PTCLDY    24  21  88 S6        30.32F WCI  17
MCCOOK         CLOUDY    28  19  69 SE3       30.38R
$$

NEZ005>010-023>029-035>040-094-270900-
NORTH CENTRAL NEBRASKA

CITY           SKY/WX    TMP DP  RH WIND       PRES   REMARKS
VALENTINE      CLOUDY    23  18  81 E5        30.34F WCI  17
BROKEN BOW     CLOUDY    22  16  78 E7        30.35F WCI  13
ORD            PTCLDY    13  10  88 S7        30.40S WCI   3
$$

NEZ041-046>049-061>064-073>077-083>087-270900-
SOUTH CENTRAL NEBRASKA

CITY           SKY/WX    TMP DP  RH WIND       PRES   REMARKS
GRAND ISLAND   CLEAR     16  12  84 NE5       30.44F WCI   9
HASTINGS       PTCLDY    16  12  84 E3        30.41F
KEARNEY *      CLOUDY    18  12  79 NE6       30.40F WCI   9
$$

NEZ011>018-030>034-042>045-270900-
NORTHEAST NEBRASKA

CITY           SKY/WX    TMP DP  RH WIND       PRES   REMARKS
NORFOLK        CLOUDY    16   9  74 N7        30.45F WCI   6
COLUMBUS *     MOCLDY    18   7  62 NW3       30.48R
TEKAMAH        CLEAR     15   9  76 NW3       30.50R
$$

NEZ050>053-065>068-078-088>093-270900-
SOUTHEAST NEBRASKA

CITY           SKY/WX    TMP DP  RH WIND       PRES   REMARKS
LINCOLN        PTCLDY    18  12  77 N7        30.50F WCI   9
OMAHA EPPLEY   PTCLDY    17  11  77 N6        30.51R WCI   9
FALLS CITY     CLOUDY    24  18  77 NW12G18   30.48R WCI  13
$$

NEZ044-045-051>053-067-270900-
OMAHA AREA

CITY           SKY/WX    TMP DP  RH WIND       PRES   REMARKS
OMAHA EPPLEY   PTCLDY    17  11  77 N6        30.51R WCI   9
OFFUTT AFB     CLOUDY    20  14  77 NW10      30.49R WCI   8
$$


USA.gov is the U.S. government's official web portal to all federal, state and local government web resources and services.